When you browse on this site, cookies collect data to enhance your experience and personalize the content and advertising you see.
Visit our Privacy Policy to learn more. By continuing to use the site, you agree to this use of cookies and data.
  • In Netherlands
  • List of Countries
  • For 7 days
  • Water Temperature
  • Satellite Maps
  • Weather Map
  • Weather Widgets
  • user-avatar
    Login

    Hourly Weather Adelaide

    Today, 16 January, Wednesday

    Time Temperature Precipitation Wind Pressure Humidity
    00:00 +28°C° 0 mm 4 mps 753 mmHg 34%
    01:00 +27°C° 0 mm 3 mps 753 mmHg 37%
    02:00 +27°C° 0 mm 3 mps 752 mmHg 41%
    03:00 +26°C° 0 mm 2 mps 752 mmHg 45%
    04:00 +26°C° 0 mm 2 mps 752 mmHg 44%
    05:00 +27°C° 0 mm 1 mps 753 mmHg 43%
    06:00 +27°C° 0 mm 1 mps 753 mmHg 42%
    07:00 +30°C° 0 mm 1 mps 753 mmHg 36%
    08:00 +34°C° 0 mm 2 mps 753 mmHg 29%
    09:00 +37°C° 0 mm 1 mps 753 mmHg 19%
    10:00 +39°C° 0 mm 1 mps 752 mmHg 18%
    11:00 +40°C° 0 mm 1 mps 752 mmHg 17%
    12:00 +41°C° 0 mm 2 mps 751 mmHg 15%
    13:00 +43°C° 0 mm 3 mps 751 mmHg 15%
    14:00 +45°C° 0 mm 5 mps 750 mmHg 14%
    15:00 +44°C° 0 mm 6 mps 750 mmHg 16%
    16:00 +41°C° 0.1 mm 5 mps 750 mmHg 18%
    17:00 +39°C° 0.1 mm 3 mps 751 mmHg 21%
    18:00 +38°C° 0.1 mm 2 mps 751 mmHg 23%
    19:00 +36°C° 0 mm 2 mps 751 mmHg 26%
    20:00 +35°C° 0 mm 2 mps 751 mmHg 29%
    21:00 +34°C° 0 mm 2 mps 751 mmHg 30%
    22:00 +32°C° 0 mm 2 mps 751 mmHg 32%
    23:00 +31°C° 0 mm 1 mps 752 mmHg 33%

    Tomorrow, 17 January, Thursday

    Time Temperature Precipitation Wind Pressure Humidity
    00:00 +30°C° 0 mm 1 mps 752 mmHg 35%
    01:00 +30°C° 0 mm 1 mps 752 mmHg 35%
    02:00 +30°C° 0 mm 1 mps 752 mmHg 34%
    03:00 +30°C° 0 mm 1 mps 752 mmHg 33%
    04:00 +31°C° 0 mm 1 mps 752 mmHg 33%
    05:00 +31°C° 0 mm 2 mps 752 mmHg 33%
    06:00 +33°C° 0 mm 3 mps 752 mmHg 33%
    07:00 +34°C° 0 mm 2 mps 752 mmHg 31%
    08:00 +36°C° 0 mm 2 mps 752 mmHg 29%
    09:00 +38°C° 0 mm 2 mps 752 mmHg 26%
    10:00 +39°C° 0 mm 3 mps 752 mmHg 25%
    11:00 +41°C° 0 mm 4 mps 751 mmHg 23%
    12:00 +42°C° 0 mm 4 mps 751 mmHg 21%
    13:00 +41°C° 0 mm 5 mps 751 mmHg 24%
    14:00 +40°C° 0 mm 5 mps 750 mmHg 27%
    15:00 +39°C° 0 mm 6 mps 750 mmHg 29%
    16:00 +36°C° 0 mm 5 mps 750 mmHg 35%
    17:00 +34°C° 0 mm 5 mps 750 mmHg 40%
    18:00 +30°C° 0 mm 5 mps 750 mmHg 46%
    19:00 +30°C° 0 mm 4 mps 750 mmHg 48%
    20:00 +29°C° 0 mm 3 mps 751 mmHg 51%
    21:00 +28°C° 0 mm 2 mps 751 mmHg 54%
    22:00 +28°C° 0 mm 2 mps 751 mmHg 55%
    23:00 +27°C° 0 mm 2 mps 751 mmHg 55%

    Day after tomorrow, 18 January, Friday

    Time Temperature Precipitation Wind Pressure Humidity
    00:00 +27°C° 0 mm 2 mps 751 mmHg 56%
    01:00 +27°C° 0 mm 3 mps 751 mmHg 58%
    02:00 +26°C° 0 mm 3 mps 751 mmHg 60%
    03:00 +26°C° 0 mm 3 mps 751 mmHg 62%
    04:00 +25°C° 0 mm 3 mps 751 mmHg 64%
    05:00 +25°C° 0 mm 3 mps 752 mmHg 65%
    06:00 +25°C° 0 mm 3 mps 753 mmHg 67%
    07:00 +25°C° 0 mm 3 mps 753 mmHg 67%
    08:00 +25°C° 0 mm 4 mps 754 mmHg 67%
    09:00 +25°C° 0 mm 4 mps 754 mmHg 67%
    10:00 +26°C° 0 mm 4 mps 754 mmHg 65%
    11:00 +26°C° 0 mm 4 mps 754 mmHg 63%
    12:00 +27°C° 0 mm 3 mps 754 mmHg 60%
    13:00 +26°C° 0 mm 4 mps 754 mmHg 59%
    14:00 +26°C° 0 mm 5 mps 755 mmHg 58%
    15:00 +26°C° 0 mm 5 mps 755 mmHg 57%
    16:00 +25°C° 0 mm 5 mps 755 mmHg 58%
    17:00 +23°C° 0 mm 5 mps 756 mmHg 60%
    18:00 +21°C° 0 mm 5 mps 757 mmHg 61%
    19:00 +21°C° 0 mm 5 mps 757 mmHg 65%
    20:00 +20°C° 0 mm 5 mps 758 mmHg 68%
    21:00 +20°C° 0 mm 5 mps 759 mmHg 72%
    22:00 +19°C° 0 mm 5 mps 759 mmHg 74%
    23:00 +19°C° 0 mm 5 mps 759 mmHg 77%

    19 January, Saturday

    Time Temperature Precipitation Wind Pressure Humidity
    00:00 +19°C° 0 mm 5 mps 759 mmHg 80%
    01:00 +19°C° 0 mm 5 mps 759 mmHg 81%
    02:00 +19°C° 0 mm 5 mps 759 mmHg 81%
    03:00 +17°C° 0 mm 5 mps 759 mmHg 82%
    04:00 +17°C° 0 mm 5 mps 760 mmHg 80%
    05:00 +17°C° 0 mm 5 mps 760 mmHg 78%
    06:00 +17°C° 0 mm 5 mps 761 mmHg 75%
    07:00 +20°C° 0 mm 5 mps 761 mmHg 66%
    08:00 +22°C° 0 mm 5 mps 761 mmHg 57%
    09:00 +23°C° 0 mm 4 mps 762 mmHg 47%
    10:00 +26°C° 0 mm 5 mps 761 mmHg 43%
    11:00 +27°C° 0 mm 5 mps 761 mmHg 38%
    12:00 +29°C° 0 mm 5 mps 761 mmHg 34%
    13:00 +28°C° 0 mm 5 mps 760 mmHg 34%
    14:00 +28°C° 0 mm 6 mps 760 mmHg 35%
    15:00 +28°C° 0 mm 6 mps 760 mmHg 35%
    16:00 +27°C° 0 mm 6 mps 760 mmHg 40%
    17:00 +24°C° 0 mm 6 mps 760 mmHg 45%
    18:00 +23°C° 0 mm 6 mps 760 mmHg 49%
    19:00 +22°C° 0 mm 6 mps 760 mmHg 55%
    20:00 +20°C° 0 mm 6 mps 761 mmHg 61%
    21:00 +19°C° 0 mm 5 mps 761 mmHg 67%
    22:00 +19°C° 0 mm 5 mps 761 mmHg 68%
    23:00 +19°C° 0 mm 5 mps 761 mmHg 69%

    20 January, Sunday

    Time Temperature Precipitation Wind Pressure Humidity
    00:00 +19°C° 0 mm 5 mps 761 mmHg 70%
    01:00 +19°C° 0 mm 5 mps 761 mmHg 70%
    02:00 +19°C° 0 mm 4 mps 760 mmHg 70%
    03:00 +18°C° 0 mm 4 mps 760 mmHg 69%
    04:00 +19°C° 0 mm 4 mps 760 mmHg 66%
    05:00 +19°C° 0 mm 4 mps 760 mmHg 62%
    06:00 +19°C° 0 mm 4 mps 761 mmHg 59%
    07:00 +22°C° 0 mm 4 mps 761 mmHg 51%
    08:00 +25°C° 0 mm 3 mps 761 mmHg 43%
    09:00 +28°C° 0 mm 3 mps 761 mmHg 35%
    10:00 +30°C° 0 mm 2 mps 760 mmHg 31%
    11:00 +34°C° 0 mm 2 mps 760 mmHg 26%
    12:00 +36°C° 0 mm 2 mps 760 mmHg 22%
    13:00 +36°C° 0 mm 3 mps 759 mmHg 22%
    14:00 +36°C° 0 mm 3 mps 758 mmHg 23%
    15:00 +36°C° 0 mm 4 mps 758 mmHg 23%
    16:00 +34°C° 0 mm 4 mps 758 mmHg 28%
    17:00 +32°C° 0 mm 4 mps 758 mmHg 32%
    18:00 +29°C° 0 mm 4 mps 758 mmHg 36%
    19:00 +28°C° 0 mm 4 mps 758 mmHg 41%
    20:00 +26°C° 0 mm 4 mps 759 mmHg 46%
    21:00 +25°C° 0 mm 4 mps 759 mmHg 52%
    22:00 +24°C° 0 mm 3 mps 758 mmHg 53%
    23:00 +24°C° 0 mm 3 mps 758 mmHg 55%

    21 January, Monday

    Time Temperature Precipitation Wind Pressure Humidity
    00:00 +24°C° 0 mm 3 mps 757 mmHg 57%
    01:00 +24°C° 0 mm 3 mps 757 mmHg 57%
    02:00 +24°C° 0 mm 2 mps 757 mmHg 57%
    03:00 +24°C° 0 mm 2 mps 756 mmHg 56%
    04:00 +25°C° 0 mm 2 mps 756 mmHg 55%
    05:00 +25°C° 0 mm 2 mps 756 mmHg 53%
    06:00 +26°C° 0 mm 1 mps 757 mmHg 51%
    07:00 +28°C° 0 mm 1 mps 757 mmHg 46%
    08:00 +30°C° 0 mm 1 mps 757 mmHg 40%
    09:00 +32°C° 0 mm 1 mps 757 mmHg 34%
    10:00 +34°C° 0 mm 1 mps 756 mmHg 31%
    11:00 +36°C° 0 mm 2 mps 756 mmHg 28%
    12:00 +38°C° 0 mm 3 mps 755 mmHg 25%
    13:00 +38°C° 0 mm 3 mps 754 mmHg 25%
    14:00 +38°C° 0 mm 4 mps 754 mmHg 25%
    15:00 +38°C° 0 mm 4 mps 753 mmHg 25%
    16:00 +37°C° 0 mm 4 mps 753 mmHg 27%
    17:00 +36°C° 0 mm 4 mps 753 mmHg 30%
    18:00 +35°C° 0 mm 4 mps 753 mmHg 32%
    19:00 +33°C° 0 mm 4 mps 754 mmHg 36%
    20:00 +30°C° 0 mm 4 mps 754 mmHg 40%
    21:00 +28°C° 0 mm 3 mps 754 mmHg 44%
    22:00 +28°C° 0 mm 3 mps 754 mmHg 45%
    23:00 +27°C° 0 mm 3 mps 754 mmHg 46%
    Show more